Эпиналь

Франция     48°10′33″N   6°27′12″E
темп.,
°C
ветер,
м/с
пор.,
м/с
влажн.,
%
обл.,
%
осадки,
мм/ч
давл.,
гПа
погр.,
м
19 сентября, вс
вс1923:00+13вюв119058 0.0 101312
02:00+12вюв1190100 0.0 101310
05:00+11ю118955 0.0 101213
08:00+12ююв2492100 0.0 1012137
11:00+13ююз3796100 0.5 1013669
14:00+13ююз3798100 1.6 1014486
17:00+12ююз3798100 2.2 1014455
20:00+12ю2898100 2.5 1016368
20 сентября, пн
пн2023:00+12ю2699100 0.1 1017346
02:00+12ю259994 0.2 1017298
05:00+12ююв1298100 0.1 1017103
08:00+12юв1197100 0.1 101727
11:00+13всв0193100 0.1 1018132
14:00+15зсз118898 0.9 1018207
17:00+16сз118427 2.1 1018217
20:00+12ю119399 2.6 102010
21 сентября, вт
вт2123:00+10ююв119620 0.0 102211
02:00+9ююв11965 0.0 102310
05:00+9в11965 0.0 102310
08:00+9ссв11965 0.0 102514
11:00+15ссв237860 0.0 1025376
14:00+19ссв334910 0.0 10241617
17:00+18ссв45555 0.0 10241131
20:00+12ссв3880100 0.0 1026188
22 сентября, ср
ср2223:00+10св2684100 0.0 1027111
02:00+8св248249 0.0 102773
05:00+7св228633 0.0 102636
08:00+7св22865 0.0 102653
11:00+15св355438 0.0 1025622
14:00+18св4639100 0.0 10231122
17:00+17св454727 0.0 1022971
20:00+11св387527 0.0 1023144
23 сентября, чт
чт2323:00+9всв22795 0.0 102344
02:00+7всв22845 0.0 102218
05:00+7всв11865 0.0 102210
08:00+6всв11885 0.0 102210
11:00+15ссв12555 0.0 1021423
14:00+19с224612 0.0 1020806
17:00+19ссз224992 0.0 1018854
20:00+12ссз0082100 0.0 102010